When you browse on this site, cookies collect data to enhance your experience and personalize the content and advertising you see.
Visit our Privacy Policy to learn more. By continuing to use the site, you agree to this use of cookies and data.
  • In Austria
  • List of Countries
  • For 7 days
  • Water Temperature
  • Weather Map
  • News
  • Weather Widgets
  • user-avatar
    Login

    Hourly Weather Bragansa

    Today, 4 April, Saturday

    Time Temperature Precipitation Wind Pressure Humidity
    00:00 +7°C° 0 mm 2 mps 711 mmHg 68%
    01:00 +7°C° 0 mm 2 mps 711 mmHg 69%
    02:00 +8°C° 0 mm 1 mps 711 mmHg 71%
    03:00 +7°C° 0 mm 1 mps 710 mmHg 72%
    04:00 +6°C° 0 mm 2 mps 710 mmHg 73%
    05:00 +6°C° 0 mm 2 mps 710 mmHg 73%
    06:00 +5°C° 0 mm 2 mps 710 mmHg 74%
    07:00 +8°C° 0 mm 2 mps 710 mmHg 68%
    08:00 +10°C° 0 mm 2 mps 711 mmHg 61%
    09:00 +13°C° 0 mm 2 mps 711 mmHg 55%
    10:00 +14°C° 0 mm 3 mps 711 mmHg 51%
    11:00 +16°C° 0 mm 3 mps 711 mmHg 46%
    12:00 +18°C° 0 mm 3 mps 711 mmHg 42%
    13:00 +18°C° 0 mm 4 mps 710 mmHg 42%
    14:00 +17°C° 0 mm 5 mps 710 mmHg 43%
    15:00 +19°C° 0 mm 6 mps 710 mmHg 43%
    16:00 +17°C° 0 mm 5 mps 709 mmHg 48%
    17:00 +17°C° 0 mm 4 mps 709 mmHg 54%
    18:00 +15°C° 0 mm 4 mps 709 mmHg 59%
    19:00 +13°C° 0 mm 3 mps 709 mmHg 62%
    20:00 +12°C° 0 mm 3 mps 710 mmHg 64%
    21:00 +11°C° 0 mm 3 mps 710 mmHg 67%
    22:00 +11°C° 0 mm 3 mps 710 mmHg 69%
    23:00 +12°C° 0 mm 2 mps 710 mmHg 71%

    Tomorrow, 5 April, Sunday

    Time Temperature Precipitation Wind Pressure Humidity
    00:00 +12°C° 0 mm 2 mps 710 mmHg 73%
    01:00 +10°C° 0 mm 2 mps 710 mmHg 78%
    02:00 +10°C° 0 mm 2 mps 710 mmHg 82%
    03:00 +9°C° 0 mm 2 mps 709 mmHg 87%
    04:00 +9°C° 0.1 mm 2 mps 710 mmHg 86%
    05:00 +10°C° 0.1 mm 3 mps 710 mmHg 86%
    06:00 +10°C° 0.1 mm 3 mps 710 mmHg 86%
    07:00 +11°C° 0 mm 4 mps 710 mmHg 81%
    08:00 +12°C° 0 mm 5 mps 710 mmHg 77%
    09:00 +13°C° 0 mm 6 mps 711 mmHg 72%
    10:00 +14°C° 0.1 mm 6 mps 711 mmHg 71%
    11:00 +14°C° 0.1 mm 6 mps 711 mmHg 70%
    12:00 +15°C° 0.1 mm 5 mps 711 mmHg 69%
    13:00 +14°C° 0.7 mm 5 mps 710 mmHg 74%
    14:00 +13°C° 0.7 mm 4 mps 710 mmHg 78%
    15:00 +13°C° 0.7 mm 3 mps 710 mmHg 83%
    16:00 +12°C° 2.7 mm 3 mps 710 mmHg 87%
    17:00 +13°C° 2.7 mm 2 mps 709 mmHg 92%
    18:00 +12°C° 2.7 mm 1 mps 709 mmHg 97%
    19:00 +12°C° 0.9 mm 1 mps 710 mmHg 97%
    20:00 +12°C° 0.9 mm 1 mps 710 mmHg 97%
    21:00 +12°C° 0.9 mm 1 mps 711 mmHg 97%
    22:00 +12°C° 0 mm 1 mps 711 mmHg 97%
    23:00 +11°C° 0 mm 1 mps 711 mmHg 97%

    Day after tomorrow, 6 April, Monday

    Time Temperature Precipitation Wind Pressure Humidity
    00:00 +11°C° 0 mm 1 mps 711 mmHg 97%
    01:00 +11°C° 0 mm 1 mps 711 mmHg 98%
    02:00 +11°C° 0 mm 1 mps 712 mmHg 98%
    03:00 +11°C° 0 mm 1 mps 712 mmHg 98%
    04:00 +11°C° 0 mm 1 mps 712 mmHg 97%
    05:00 +10°C° 0 mm 1 mps 713 mmHg 97%
    06:00 +10°C° 0 mm 1 mps 713 mmHg 97%
    07:00 +11°C° 0 mm 1 mps 713 mmHg 92%
    08:00 +12°C° 0 mm 1 mps 714 mmHg 86%
    09:00 +13°C° 0 mm 2 mps 715 mmHg 81%
    10:00 +14°C° 0 mm 2 mps 715 mmHg 71%
    11:00 +16°C° 0 mm 2 mps 715 mmHg 60%
    12:00 +17°C° 0 mm 3 mps 716 mmHg 50%
    13:00 +17°C° 0 mm 3 mps 716 mmHg 50%
    14:00 +18°C° 0 mm 3 mps 716 mmHg 49%
    15:00 +18°C° 0 mm 4 mps 716 mmHg 48%
    16:00 +17°C° 0 mm 3 mps 716 mmHg 53%
    17:00 +17°C° 0 mm 3 mps 716 mmHg 57%
    18:00 +16°C° 0 mm 2 mps 716 mmHg 61%
    19:00 +14°C° 0 mm 2 mps 716 mmHg 66%
    20:00 +13°C° 0 mm 1 mps 717 mmHg 70%
    21:00 +10°C° 0 mm 0 mps 717 mmHg 75%
    22:00 +10°C° 0 mm 1 mps 717 mmHg 77%
    23:00 +10°C° 0 mm 1 mps 717 mmHg 79%

    7 April, Tuesday

    Time Temperature Precipitation Wind Pressure Humidity
    00:00 +10°C° 0 mm 1 mps 718 mmHg 81%
    01:00 +9°C° 0 mm 1 mps 717 mmHg 84%
    02:00 +9°C° 0 mm 1 mps 717 mmHg 88%
    03:00 +8°C° 0 mm 1 mps 717 mmHg 91%
    04:00 +8°C° 0 mm 1 mps 717 mmHg 92%
    05:00 +8°C° 0 mm 1 mps 717 mmHg 93%
    06:00 +7°C° 0 mm 1 mps 717 mmHg 93%
    07:00 +9°C° 0 mm 1 mps 718 mmHg 86%
    08:00 +12°C° 0 mm 1 mps 718 mmHg 79%
    09:00 +14°C° 0 mm 1 mps 718 mmHg 71%
    10:00 +16°C° 0 mm 1 mps 718 mmHg 63%
    11:00 +19°C° 0 mm 1 mps 718 mmHg 55%
    12:00 +19°C° 0 mm 0 mps 719 mmHg 47%
    13:00 +21°C° 0 mm 1 mps 718 mmHg 45%
    14:00 +21°C° 0 mm 1 mps 718 mmHg 43%
    15:00 +22°C° 0 mm 1 mps 718 mmHg 41%
    16:00 +21°C° 0 mm 1 mps 717 mmHg 45%
    17:00 +20°C° 0 mm 1 mps 717 mmHg 50%
    18:00 +20°C° 0 mm 1 mps 717 mmHg 54%
    19:00 +18°C° 0 mm 1 mps 717 mmHg 58%
    20:00 +15°C° 0 mm 1 mps 717 mmHg 61%
    21:00 +13°C° 0 mm 0 mps 718 mmHg 64%
    22:00 +13°C° 0 mm 1 mps 718 mmHg 66%
    23:00 +13°C° 0 mm 1 mps 718 mmHg 68%

    8 April, Wednesday

    Time Temperature Precipitation Wind Pressure Humidity
    00:00 +12°C° 0 mm 1 mps 718 mmHg 71%
    01:00 +12°C° 0 mm 1 mps 717 mmHg 72%
    02:00 +11°C° 0 mm 1 mps 717 mmHg 74%
    03:00 +11°C° 0 mm 1 mps 717 mmHg 76%
    04:00 +11°C° 0 mm 1 mps 717 mmHg 77%
    05:00 +10°C° 0 mm 1 mps 717 mmHg 78%
    06:00 +10°C° 0 mm 1 mps 717 mmHg 79%
    07:00 +12°C° 0 mm 1 mps 717 mmHg 72%
    08:00 +15°C° 0 mm 1 mps 717 mmHg 66%
    09:00 +18°C° 0 mm 1 mps 717 mmHg 59%
    10:00 +19°C° 0 mm 1 mps 717 mmHg 56%
    11:00 +20°C° 0 mm 2 mps 717 mmHg 52%
    12:00 +21°C° 0 mm 2 mps 718 mmHg 48%
    13:00 +21°C° 0 mm 2 mps 717 mmHg 50%
    14:00 +21°C° 0 mm 2 mps 717 mmHg 51%
    15:00 +21°C° 0 mm 3 mps 717 mmHg 53%
    16:00 +19°C° 0.2 mm 3 mps 716 mmHg 63%
    17:00 +17°C° 0.2 mm 3 mps 716 mmHg 73%
    18:00 +15°C° 0.2 mm 2 mps 716 mmHg 83%
    19:00 +15°C° 0.1 mm 2 mps 716 mmHg 84%
    20:00 +15°C° 0.1 mm 1 mps 716 mmHg 86%
    21:00 +13°C° 0.1 mm 0 mps 716 mmHg 88%
    22:00 +13°C° 0 mm 0 mps 716 mmHg 88%
    23:00 +13°C° 0 mm 0 mps 716 mmHg 87%

    9 April, Thursday

    Time Temperature Precipitation Wind Pressure Humidity
    00:00 +13°C° 0 mm 0 mps 716 mmHg 87%
    01:00 +13°C° 0 mm 0 mps 716 mmHg 87%
    02:00 +13°C° 0 mm 0 mps 715 mmHg 87%
    03:00 +13°C° 0 mm 0 mps 715 mmHg 88%
    04:00 +13°C° 0 mm 0 mps 715 mmHg 88%
    05:00 +12°C° 0 mm 0 mps 715 mmHg 88%
    06:00 +13°C° 0 mm 1 mps 715 mmHg 88%
    07:00 +13°C° 0.2 mm 0 mps 715 mmHg 89%
    08:00 +13°C° 0.2 mm 0 mps 715 mmHg 89%
    09:00 +13°C° 0.2 mm 0 mps 715 mmHg 89%
    10:00 +13°C° 1.1 mm 0 mps 715 mmHg 90%
    11:00 +14°C° 1.1 mm 1 mps 715 mmHg 92%
    12:00 +14°C° 1.1 mm 1 mps 716 mmHg 93%
    13:00 +14°C° 0.2 mm 1 mps 715 mmHg 93%
    14:00 +14°C° 0.2 mm 1 mps 715 mmHg 92%
    15:00 +14°C° 0.2 mm 1 mps 715 mmHg 92%
    16:00 +15°C° 0 mm 1 mps 715 mmHg 91%
    17:00 +15°C° 0 mm 2 mps 715 mmHg 89%
    18:00 +15°C° 0 mm 2 mps 715 mmHg 88%
    19:00 +14°C° 0 mm 1 mps 715 mmHg 90%
    20:00 +14°C° 0 mm 1 mps 715 mmHg 93%
    21:00 +13°C° 0 mm 1 mps 715 mmHg 95%
    22:00 +13°C° 0 mm 1 mps 716 mmHg 95%
    23:00 +13°C° 0 mm 1 mps 716 mmHg 95%
    Show more